Stations météo

Publicité
Nevers, France (7260): Température de l'air & dewpoint: 01.08.2020 11:00:00 - 07.08.2020 11:00:00 (CEST)Nevers, France (7260): Température de l'air 5cm: 01.08.2020 11:00:00 - 07.08.2020 11:00:00 (CEST)Nevers, France (7260): Température de l'air -20cm & Température de l'air -100cm: 01.08.2020 11:00:00 - 07.08.2020 11:00:00 (CEST)Nevers, France (7260): Vitesse du vent & gusts: 01.08.2020 11:00:00 - 07.08.2020 11:00:00 (CEST)Nevers, France (7260): Direction du vent: 01.08.2020 11:00:00 - 07.08.2020 11:00:00 (CEST)Nevers, France (7260): reduced air pressure: 01.08.2020 11:00:00 - 07.08.2020 11:00:00 (CEST)Nevers, France (7260): visibility: 01.08.2020 11:00:00 - 07.08.2020 11:00:00 (CEST)Nevers, France (7260): Ensoleillement: 01.08.2020 11:00:00 - 07.08.2020 11:00:00 (CEST)Nevers, France (7260): Quantités de précipitations: 01.08.2020 11:00:00 - 07.08.2020 11:00:00 (CEST)
Date & Time tt [°C] td [°C] tt 5cm [°C] tt -20cm [°C] tt -100cm [°C] ff [km/h] ff [knt] fx [km/h] fx [knt] dd ppp [hPa] vv [km] sd [min] rr [mm]
07.08.2020 11:00:00 28,2 14,1 29,9 20,8 18,4 11 6 18 10 ESE 1017,6 18 60 0,0
07.08.2020 10:00:00 25,6 13,1 27,0 20,9 18,5 8 4 14 8 ESE 1017,9 19 60 0,0
07.08.2020 09:00:00 22,6 12,5 22,4 20,9 18,5 6 3 13 7 ESE 1018,1 20 60 0,0
07.08.2020 08:00:00 19,2 14,7 10,6 21,1 18,5 0 0 3 2 N 1018,2 20 60 0,0
07.08.2020 07:00:00 13,4 11,3 9,0 21,2 18,5 0 0 3 1 N 1018,4 20 5 0,0
07.08.2020 06:00:00 12,8 10,9 9,0 21,3 18,5 0 0 0 0 N 1018,0 20 0 0,0
07.08.2020 05:00:00 13,1 10,8 9,4 21,3 18,5 0 0 2 1 N 1017,9 20 0 0,0
07.08.2020 04:00:00 14,4 11,0 10,3 21,4 18,5 0 0 2 1 N 1017,9 20 0 0,0
07.08.2020 03:00:00 15,1 11,3 11,1 21,4 18,5 0 0 3 2 N 1017,9 20 0 0,0
07.08.2020 02:00:00 16,2 11,6 11,8 21,5 18,5 0 0 2 1 N 1017,7 20 0 0,0
07.08.2020 01:00:00 18,1 11,6 12,5 21,5 18,5 0 0 6 3 N 1017,5 20 0 0,0
07.08.2020 00:00:00 20,5 11,9 14,4 21,5 18,5 2 1 16 9 E 1017,3 20 0 0,0
06.08.2020 23:00:00 20,1 12,6 14,6 21,4 18,5 3 1 5 3 NNW 1017,0 20 0 0,0
06.08.2020 22:00:00 23,0 12,3 17,6 21,4 18,5 0 0 5 3 N 1016,5 17 0 0,0
06.08.2020 21:00:00 28,1 11,6 22,4 21,2 18,5 4 2 11 6 N 1015,6 20 52 0,0
06.08.2020 20:00:00 32,1 10,7 30,3 21,1 18,5 10 5 20 11 NNE 1015,2 20 60 0,0
06.08.2020 19:00:00 33,4 10,1 34,1 20,9 18,5 10 5 20 11 NNE 1015,0 20 60 0,0
06.08.2020 18:00:00 33,5 10,2 35,7 20,8 18,5 12 7 25 13 NNE 1015,1 20 60 0,0
06.08.2020 17:00:00 33,8 11,0 37,7 20,6 18,5 3 2 25 14 W 1015,3 19 60 0,0
06.08.2020 16:00:00 32,9 9,7 36,7 20,5 18,5 8 4 20 11 N 1015,6 18 60 0,0
06.08.2020 15:00:00 31,9 9,4 36,8 20,4 18,5 6 4 21 12 ENE 1016,2 20 60 0,0
06.08.2020 14:00:00 31,0 10,4 34,5 20,2 18,5 10 6 31 17 E 1016,6 18 60 0,0
06.08.2020 13:00:00 29,6 10,2 35,3 20,2 18,5 8 4 19 11 ESE 1017,1 19 60 0,0
06.08.2020 12:00:00 28,3 10,0 32,7 20,2 18,5 9 5 18 10 E 1017,5 20 60 0,0
06.08.2020 11:00:00 25,8 11,9 27,5 20,3 18,5 6 4 15 8 ESE 1017,9 20 60 0,0
06.08.2020 10:00:00 22,8 10,9 23,7 20,4 18,5 6 4 14 7 ESE 1018,0 20 60 0,0
06.08.2020 09:00:00 19,9 10,3 19,0 20,5 18,5 8 5 13 7 ESE 1018,0 20 60 0,0
06.08.2020 08:00:00 16,3 11,9 8,9 20,6 18,5 4 2 8 5 ENE 1017,9 20 60 0,0
06.08.2020 07:00:00 11,1 9,2 7,3 20,7 18,5 3 2 5 3 ENE 1017,9 20 6 0,0
06.08.2020 06:00:00 11,7 9,3 7,4 20,8 18,6 2 1 4 2 ENE 1017,6 20 0 0,0
06.08.2020 05:00:00 11,7 9,6 7,7 20,8 18,5 0 0 5 3 N 1017,4 20 0 0,0
06.08.2020 04:00:00 13,0 9,8 8,2 20,9 18,5 0 0 3 2 N 1017,2 20 0 0,0
06.08.2020 03:00:00 12,8 10,3 8,8 21,0 18,5 0 0 0 0 N 1017,0 20 0 0,0
06.08.2020 02:00:00 13,5 10,7 10,0 21,0 18,5 0 0 3 2 N 1016,9 20 0 0,0
06.08.2020 01:00:00 14,3 10,9 10,5 21,0 18,5 0 0 6 3 N 1016,7 20 0 0,0
06.08.2020 00:00:00 15,7 10,9 11,2 21,0 18,5 0 0 5 3 N 1016,5 20 0 0,0
05.08.2020 23:00:00 17,4 11,0 12,3 21,0 18,5 0 0 3 1 N 1016,0 20 0 0,0
05.08.2020 22:00:00 18,6 11,4 13,6 20,9 18,5 0 0 3 2 N 1015,6 20 0 0,0
05.08.2020 21:00:00 25,1 10,9 19,9 20,8 18,6 3 1 10 5 NW 1014,4 20 53 0,0
05.08.2020 20:00:00 28,9 9,1 27,8 20,7 18,5 5 3 13 7 NW 1014,1 20 60 0,0
05.08.2020 19:00:00 29,6 8,6 31,0 20,5 18,5 8 4 15 8 NW 1013,8 20 60 0,0
05.08.2020 18:00:00 29,8 9,8 32,9 20,4 18,5 5 3 17 9 WNW 1014,0 20 60 0,0
05.08.2020 17:00:00 29,4 9,0 34,5 20,2 18,5 4 2 14 8 SSE 1014,1 16 60 0,0
05.08.2020 16:00:00 29,2 9,3 33,6 20,1 18,6 6 3 19 10 WNW 1014,5 20 60 0,0
05.08.2020 15:00:00 27,5 9,3 32,9 20,0 18,5 11 6 21 12 W 1015,1 20 60 0,0
05.08.2020 14:00:00 27,2 10,4 31,2 19,9 18,6 6 4 16 9 NNW 1015,6 20 60 0,0
05.08.2020 13:00:00 25,5 8,9 32,7 19,9 18,6 4 2 16 9 WNW 1016,3 20 60 0,0
05.08.2020 12:00:00 25,0 9,3 31,0 19,9 18,5 4 2 14 8 WSW 1016,8 18 60 0,0
05.08.2020 11:00:00 23,2 11,3 27,4 19,9 18,5 0 0 7 4 N 1017,1 20 60 0,0
05.08.2020 10:00:00 20,9 9,8 24,8 20,0 18,6 0 0 5 3 N 1017,5 20 60 0,0
05.08.2020 09:00:00 16,8 10,2 16,9 20,2 18,6 0 0 3 1 N 1017,9 20 60 0,0
05.08.2020 08:00:00 12,5 9,7 6,7 20,3 18,6 0 0 2 1 N 1018,3 20 60 0,0
05.08.2020 07:00:00 7,5 6,6 3,8 20,4 18,6 0 0 2 1 N 1018,3 20 8 0,0
05.08.2020 06:00:00 7,5 6,4 4,0 20,5 18,6 0 0 0 0 N 1017,9 20 0 0,0
05.08.2020 05:00:00 8,3 6,9 4,6 20,7 18,6 0 0 0 0 N 1018,0 20 0 0,0
05.08.2020 04:00:00 8,7 7,0 5,2 20,7 18,5 0 0 2 1 N 1018,1 20 0 0,0
05.08.2020 03:00:00 9,0 7,1 5,6 20,8 18,5 0 0 3 1 N 1018,1 20 0 0,0
05.08.2020 02:00:00 10,1 7,9 6,2 20,9 18,6 0 0 0 0 N 1018,2 20 0 0,0
05.08.2020 01:00:00 10,4 7,8 6,6 21,0 18,6 0 0 2 1 N 1018,3 20 0 0,0
05.08.2020 00:00:00 11,8 8,3 7,6 21,0 18,6 0 0 3 1 N 1018,3 20 0 0,0
04.08.2020 23:00:00 13,1 8,4 8,8 21,0 18,5 0 0 3 1 N 1018,1 20 0 0,0
04.08.2020 22:00:00 15,5 8,2 11,5 21,0 18,5 0 0 6 3 N 1017,7 15 0 0,0
04.08.2020 21:00:00 21,2 8,1 16,8 20,9 18,5 5 3 11 6 N 1017,0 20 55 0,0
04.08.2020 20:00:00 23,7 6,9 23,8 20,9 18,6 6 3 13 7 NNW 1016,8 20 60 0,0
04.08.2020 19:00:00 24,4 5,7 26,6 20,8 18,5 4 2 18 10 NE 1016,7 20 60 0,0
04.08.2020 18:00:00 24,5 6,3 24,6 20,7 18,5 11 6 23 12 NNW 1016,9 20 54 0,0
04.08.2020 17:00:00 24,2 5,5 23,4 20,6 18,5 13 7 26 14 NNE 1017,2 20 43 0,0
04.08.2020 16:00:00 24,0 7,2 24,2 20,5 18,5 13 7 24 13 N 1017,5 20 43 0,0
04.08.2020 15:00:00 23,2 8,1 23,9 20,5 18,5 8 4 26 14 NNW 1017,7 20 50 0,0
04.08.2020 14:00:00 22,3 7,3 22,7 20,4 18,5 14 8 33 18 NNW 1018,2 20 54 0,0
04.08.2020 13:00:00 21,6 8,5 23,4 20,4 18,5 11 6 29 15 N 1018,5 20 55 0,0
04.08.2020 12:00:00 20,6 9,5 23,8 20,5 18,5 15 8 28 15 NNW 1018,5 20 57 0,0
04.08.2020 11:00:00 19,0 10,5 21,3 20,5 18,5 11 6 24 13 NW 1018,6 20 54 0,0
04.08.2020 10:00:00 17,3 12,0 19,9 20,6 18,5 7 4 16 9 WNW 1018,8 20 60 0,0
04.08.2020 09:00:00 14,6 11,4 15,3 20,7 18,6 11 6 16 8 NW 1018,7 20 60 0,0
04.08.2020 08:00:00 12,5 10,7 10,7 20,8 18,5 6 3 10 5 NW 1018,6 20 60 0,0
04.08.2020 07:00:00 11,7 10,1 7,1 20,9 18,6 8 5 13 7 W 1018,2 20 9 0,0
04.08.2020 06:00:00 12,0 10,1 7,5 21,1 18,6 9 5 13 7 W 1017,9 20 0 0,0
04.08.2020 05:00:00 11,8 9,0 7,9 21,2 18,5 4 2 10 6 WNW 1017,5 20 0 0,0
04.08.2020 04:00:00 12,6 9,8 9,1 21,3 18,5 6 3 18 10 WNW 1017,1 20 0 0,0
04.08.2020 03:00:00 12,6 10,0 9,6 21,4 18,5 10 5 18 10 NNW 1017,0 20 0 0,0
04.08.2020 02:00:00 14,3 9,9 9,8 21,5 18,5 9 5 16 8 NNW 1017,0 20 0 0,0
04.08.2020 01:00:00 14,5 8,7 10,3 21,6 18,5 8 4 15 8 NW 1016,8 20 0 0,0
04.08.2020 00:00:00 14,4 8,1 7,6 21,6 18,5 12 7 19 11 NNW 1016,4 20 0 0,0
03.08.2020 23:00:00 14,5 8,7 8,4 21,7 18,5 4 2 11 6 WNW 1015,6 20 0 0,0
03.08.2020 22:00:00 15,0 8,9 10,1 21,7 18,5 5 3 10 5 W 1015,1 20 0 0,0
03.08.2020 21:00:00 19,7 9,0 17,5 21,7 18,5 9 5 24 13 WNW 1014,5 20 54 0,0
03.08.2020 20:00:00 20,8 8,8 19,3 21,7 18,5 19 10 30 16 WNW 1014,2 20 38 0,0
03.08.2020 19:00:00 20,2 9,7 20,0 21,7 18,5 16 9 32 18 NNW 1014,3 20 39 0,0
03.08.2020 18:00:00 21,6 9,8 24,4 21,7 18,5 20 11 35 19 NW 1014,4 20 60 0,0
03.08.2020 17:00:00 20,3 10,7 20,8 21,7 18,5 16 9 30 16 NW 1014,8 20 52 0,0
03.08.2020 16:00:00 17,8 13,1 16,0 21,7 18,5 26 14 44 24 NNW 1015,8 20 4 0,6
03.08.2020 15:00:00 19,8 12,1 18,2 21,7 18,4 13 7 23 12 NNW 1015,7 20 1 0,0
03.08.2020 14:00:00 17,9 12,3 17,8 21,7 18,5 19 10 53 28 WNW 1016,2 20 0 0,0
03.08.2020 13:00:00 21,6 9,8 22,1 21,7 18,4 14 7 24 13 W 1015,3 20 9 0,0
03.08.2020 12:00:00 20,6 9,8 22,3 21,7 18,4 16 8 34 18 NW 1015,7 20 29 0,0
03.08.2020 11:00:00 21,1 10,3 20,3 21,8 18,4 15 8 22 12 WNW 1015,7 20 35 0,0
03.08.2020 10:00:00 18,9 10,5 19,9 21,9 18,4 4 2 13 7 WNW 1015,7 20 27 0,0
03.08.2020 09:00:00 17,7 11,3 16,5 22,0 18,4 8 4 11 6 NW 1015,7 20 21 0,0
03.08.2020 08:00:00 16,0 10,7 12,5 22,1 18,4 7 4 10 6 NW 1015,9 20 1 0,0
03.08.2020 07:00:00 14,9 10,1 12,5 22,2 18,4 5 3 15 8 NNW 1016,1 20 0 0,0
03.08.2020 06:00:00 15,1 10,3 13,0 22,3 18,4 7 4 13 7 NW 1015,9 20 0 0,0
03.08.2020 05:00:00 15,6 10,1 13,5 22,3 18,4 11 6 15 8 NW 1015,8 20 0 0,0
03.08.2020 04:00:00 16,7 10,3 13,4 22,4 18,4 9 5 13 7 WNW 1016,0 20 0 0,0
03.08.2020 03:00:00 16,6 10,2 14,5 22,5 18,4 9 5 12 6 NW 1016,0 20 0 0,0
03.08.2020 02:00:00 18,0 10,4 16,2 22,6 18,4 8 4 16 8 NW 1016,2 20 0 0,0
03.08.2020 01:00:00 19,1 10,1 17,8 22,6 18,4 9 5 17 9 WNW 1016,5 20 0 0,0
03.08.2020 00:00:00 19,7 10,4 17,2 22,7 18,4 11 6 17 9 NW 1016,4 20 0 0,0
02.08.2020 23:00:00 19,0 11,6 15,2 22,7 18,4 10 5 19 10 NW 1016,4 20 0 0,0
02.08.2020 22:00:00 21,4 11,7 19,5 22,7 18,4 13 7 22 12 NW 1016,0 20 0 0,0
02.08.2020 21:00:00 22,3 12,0 19,6 22,7 18,4 7 4 21 12 W 1015,6 20 24 0,0
02.08.2020 20:00:00 24,2 12,5 23,7 22,6 18,4 17 9 29 16 WNW 1015,3 20 45 0,0
02.08.2020 19:00:00 24,1 12,4 24,1 22,6 18,4 11 6 26 14 NW 1015,4 20 0 0,0
02.08.2020 18:00:00 25,2 13,4 25,5 22,6 18,4 16 9 29 15 WNW 1015,5 20 32 0,0
02.08.2020 17:00:00 25,9 14,4 26,5 22,5 18,4 10 6 25 14 NNW 1015,9 20 41 0,0
02.08.2020 16:00:00 24,4 13,6 27,1 22,5 18,3 13 7 27 15 NW 1016,3 20 24 0,0
02.08.2020 15:00:00 24,0 14,1 25,5 22,5 18,3 16 8 27 15 NNW 1016,9 20 5 0,0
02.08.2020 14:00:00 23,6 14,6 26,0 22,4 18,3 16 9 29 16 NNW 1017,3 20 1 0,0
02.08.2020 13:00:00 23,5 14,2 25,9 22,5 18,4 13 7 22 12 NNW 1017,6 20 6 0,0
02.08.2020 12:00:00 23,2 13,9 25,1 22,5 18,3 14 8 26 14 NNW 1017,5 20 22 0,0
02.08.2020 11:00:00 23,1 13,3 25,4 22,5 18,4 13 7 25 13 N 1017,3 20 41 0,0
02.08.2020 10:00:00 22,0 13,4 22,0 22,6 18,3 14 8 22 12 NNE 1017,3 20 14 0,0
02.08.2020 09:00:00 20,8 16,2 20,3 22,6 18,3 9 5 13 7 NW 1017,1 20 0 0,0
02.08.2020 08:00:00 20,0 16,6 19,1 22,7 18,3 8 4 15 8 W 1017,0 20 5 0,0
02.08.2020 07:00:00 20,0 17,0 18,7 22,7 18,3 8 5 14 8 WSW 1016,8 20 0 0,0
02.08.2020 06:00:00 20,2 17,0 18,9 22,8 18,3 5 3 10 5 WSW 1016,7 20 0 0,0
02.08.2020 05:00:00 21,0 17,2 19,7 22,9 18,3 5 3 9 5 WSW 1016,8 20 0 0,0
02.08.2020 04:00:00 22,1 17,5 20,7 22,9 18,3 6 3 11 6 W 1016,8 20 0 0,0
02.08.2020 03:00:00 22,2 17,3 20,7 22,9 18,3 7 4 9 5 W 1016,7 20 0 0,0
02.08.2020 02:00:00 23,1 17,3 21,8 23,0 18,3 7 4 14 8 W 1016,8 20 0 0,0
02.08.2020 01:00:00 23,7 17,4 22,5 23,0 18,3 9 5 19 10 WNW 1017,2 20 0 0,0
02.08.2020 00:00:00 24,3 17,5 23,1 23,0 18,3 9 5 20 11 W 1017,0 20 0 0,0
01.08.2020 23:00:00 24,7 17,2 22,7 23,0 18,3 13 7 21 11 WNW 1016,5 20 0 0,0
01.08.2020 22:00:00 25,6 15,3 23,5 23,0 18,3 9 5 15 8 W 1016,4 20 0 0,0
01.08.2020 21:00:00 26,1 15,2 24,6 23,0 18,3 13 7 27 14 W 1015,5 20 3 0,0
01.08.2020 20:00:00 27,8 16,4 26,7 22,9 18,3 19 10 29 15 W 1014,9 20 57 0,0
01.08.2020 19:00:00 29,0 17,8 29,3 22,8 18,3 18 10 32 18 W 1015,2 20 49 0,0
01.08.2020 18:00:00 29,3 18,1 29,5 22,7 18,3 18 10 30 16 W 1015,4 20 12 0,0
01.08.2020 17:00:00 29,6 18,1 29,2 22,6 18,3 22 12 36 19 W 1015,5 20 1 0,0
01.08.2020 16:00:00 29,5 17,3 29,3 22,4 18,2 21 11 32 17 WNW 1015,1 20 34 0,0
01.08.2020 15:00:00 30,9 17,6 33,3 22,4 18,3 3 2 18 10 W 1015,0 20 51 0,0
01.08.2020 14:00:00 29,7 16,8 32,5 22,3 18,2 8 4 19 10 W 1015,4 20 56 0,0
01.08.2020 13:00:00 28,3 17,8 32,2 22,2 18,2 9 5 21 11 NW 1016,3 20 60 0,0
01.08.2020 12:00:00 26,6 17,9 31,2 22,2 18,3 10 5 18 10 WSW 1016,7 20 60 0,0
01.08.2020 11:00:00 25,1 17,8 27,5 22,3 18,2 3 2 12 7 WNW 1016,6 20 60 0,0

tt = Température de l'air
td = dewpoint
tt 5cm = Température de l'air 5cm
tt -20cm = Température de l'air -20cm
tt -100cm = Température de l'air -100cm
ff = Vitesse du vent
fx = gusts
dd = Direction du vent
ppp = reduced air pressure
vv = visibility
sd = Ensoleillement
rr = Quantités de précipitations

stations d'obs. à proximité